Stations météo

réclame
Mon MeteoGroup
Elsenborn, Belgique (6496): Température de l'air & dewpoint: 12.10.2018 03:00:00 - 18.10.2018 03:00:00 (CEST)Elsenborn, Belgique (6496): Vitesse du vent & gusts: 12.10.2018 03:00:00 - 18.10.2018 03:00:00 (CEST)Elsenborn, Belgique (6496): Direction du vent: 12.10.2018 03:00:00 - 18.10.2018 03:00:00 (CEST)Elsenborn, Belgique (6496): reduced air pressure: 12.10.2018 03:00:00 - 18.10.2018 03:00:00 (CEST)Elsenborn, Belgique (6496): visibility: 12.10.2018 03:00:00 - 18.10.2018 03:00:00 (CEST)
Date & Time tt [°C] td [°C] ff [km/h] ff [knt] fx [km/h] fx [knt] dd ppp [hPa] vv [km]
18.10.2018 03:00:00 - - - - - - - - -
18.10.2018 02:00:00 9,8 9,5 2 1 - - - 1022,1 0,7
18.10.2018 01:00:00 10,3 9,9 4 2 4 2 N 1022,1 1,0
18.10.2018 00:00:00 11,0 10,5 2 1 4 2 - 1021,8 0,8
17.10.2018 23:00:00 11,5 10,8 4 2 - - N 1021,6 1,8
17.10.2018 22:00:00 11,6 10,3 4 2 4 2 N 1021,3 2,8
17.10.2018 21:00:00 11,6 10,0 4 2 7 4 N 1021,1 4,4
17.10.2018 20:00:00 12,7 10,0 2 1 - - - 1020,2 7
17.10.2018 19:00:00 14,4 10,4 4 2 7 4 N 1019,3 12
17.10.2018 18:00:00 17,0 10,4 4 2 11 6 N 1018,3 19
17.10.2018 17:00:00 18,8 9,9 4 2 - - N 1017,6 17
17.10.2018 16:00:00 20,3 8,1 4 2 14 8 N 1017,2 19
17.10.2018 15:00:00 20,9 8,1 4 2 14 8 N 1017,2 20
17.10.2018 14:00:00 20,5 8,2 4 2 - - N 1017,7 19
17.10.2018 13:00:00 19,7 8,2 4 2 7 4 N 1018,3 19
17.10.2018 12:00:00 17,9 10,4 4 2 7 4 N 1018,8 20
17.10.2018 11:00:00 12,7 10,2 4 2 - - N 1020,1 12
17.10.2018 10:00:00 8,6 7,6 4 2 4 2 N 1021,1 9
17.10.2018 09:00:00 5,0 4,7 2 1 7 4 - 1021,8 5
17.10.2018 08:00:00 4,5 3,9 4 2 - - N 1021,7 5
17.10.2018 07:00:00 4,8 4,2 0 0 0 0 N 1021,7 7
17.10.2018 06:00:00 5,0 4,4 0 0 0 0 N 1021,6 6
17.10.2018 05:00:00 5,0 4,4 4 2 - - N 1021,5 3,1
17.10.2018 04:00:00 5,5 4,9 4 2 4 2 N 1021,6 4,8
17.10.2018 03:00:00 5,3 4,5 2 1 0 0 - 1021,8 3,5
17.10.2018 02:00:00 5,6 4,9 0 0 - - N 1022,0 2,1
17.10.2018 01:00:00 6,6 6,0 4 2 0 0 N 1021,7 2,2
17.10.2018 00:00:00 6,9 5,8 4 2 0 0 N 1022,0 1,6
16.10.2018 23:00:00 7,6 6,0 4 2 - - N 1022,1 1,8
16.10.2018 22:00:00 8,3 6,2 4 2 0 0 N 1021,8 3,1
16.10.2018 21:00:00 9,8 6,6 4 2 4 2 N 1021,6 3,9
16.10.2018 20:00:00 12,0 6,9 2 1 - - - 1020,6 4,7
16.10.2018 19:00:00 14,5 6,8 4 2 4 2 N 1019,6 20
16.10.2018 18:00:00 19,3 6,3 4 2 7 4 N 1018,2 20
16.10.2018 17:00:00 21,0 5,7 4 2 - - N 1017,7 20
16.10.2018 16:00:00 21,5 5,4 4 2 11 6 N 1017,8 20
16.10.2018 15:00:00 21,0 5,6 4 2 14 8 N 1018,0 20
16.10.2018 14:00:00 21,9 5,6 4 2 - - N 1017,7 20
16.10.2018 13:00:00 21,2 5,2 4 2 11 6 N 1018,2 20
16.10.2018 12:00:00 21,2 6,6 4 2 11 6 N 1018,2 4,3
16.10.2018 11:00:00 17,6 10,3 4 2 - - N 1018,8 20
16.10.2018 10:00:00 13,3 9,7 4 2 0 0 N 1019,7 20
16.10.2018 09:00:00 4,9 4,4 0 0 0 0 N 1021,5 7
16.10.2018 08:00:00 3,4 3,0 0 0 - - N 1021,6 0,2
16.10.2018 07:00:00 3,9 3,5 2 1 0 0 - 1021,1 6
16.10.2018 06:00:00 3,7 3,0 0 0 0 0 N 1021,0 10
16.10.2018 05:00:00 3,8 3,3 0 0 - - N 1020,7 10
16.10.2018 04:00:00 4,3 3,8 4 2 0 0 N 1020,6 12
16.10.2018 03:00:00 4,5 3,9 0 0 0 0 N 1020,2 10
16.10.2018 02:00:00 5,0 4,3 4 2 - - N 1019,8 11
16.10.2018 01:00:00 5,3 4,6 0 0 0 0 N 1019,5 13
16.10.2018 00:00:00 5,9 5,1 0 0 0 0 N 1019,1 12
15.10.2018 23:00:00 6,9 5,7 4 2 - - N 1018,7 15
15.10.2018 22:00:00 7,6 6,4 0 0 0 0 N 1018,2 17
15.10.2018 21:00:00 8,6 6,8 0 0 4 2 N 1017,7 20
15.10.2018 20:00:00 11,3 7,7 4 2 - - N 1016,7 20
15.10.2018 19:00:00 14,3 7,5 0 0 4 2 N 1015,6 20
15.10.2018 18:00:00 19,6 6,4 4 2 7 4 N 1013,7 20
15.10.2018 17:00:00 20,8 6,3 4 2 - - N 1013,0 20
15.10.2018 16:00:00 21,7 6,1 4 2 18 10 N 1012,6 20
15.10.2018 15:00:00 21,1 5,7 7 4 25 14 W 1012,7 20
15.10.2018 14:00:00 21,2 7,1 4 2 - - N 1012,6 20
15.10.2018 13:00:00 20,3 6,4 4 2 18 10 N 1012,8 20
15.10.2018 12:00:00 18,7 6,1 4 2 18 10 N 1013,2 20
15.10.2018 11:00:00 17,8 6,7 4 2 - - N 1013,2 20
15.10.2018 10:00:00 14,1 7,4 4 2 4 2 N 1013,7 20
15.10.2018 09:00:00 13,6 6,1 4 2 11 6 N 1013,3 20
15.10.2018 08:00:00 13,1 6,0 4 2 - - N 1012,8 20
15.10.2018 07:00:00 13,8 5,9 4 2 18 10 N 1012,0 20
15.10.2018 06:00:00 14,3 5,7 4 2 18 10 N 1011,3 20
15.10.2018 05:00:00 13,9 5,3 4 2 - - N 1011,2 20
15.10.2018 04:00:00 14,3 5,3 4 2 11 6 N 1011,3 20
15.10.2018 03:00:00 14,6 4,9 4 2 11 6 N 1011,6 20
15.10.2018 02:00:00 14,1 4,6 4 2 - - N 1011,7 20
15.10.2018 01:00:00 14,6 4,3 4 2 11 6 N 1011,2 20
15.10.2018 00:00:00 15,3 4,0 4 2 14 8 N 1011,1 20
14.10.2018 23:00:00 16,0 4,0 4 2 - - N 1010,7 20
14.10.2018 22:00:00 16,2 4,1 4 2 14 8 N 1010,5 20
14.10.2018 21:00:00 16,1 5,9 4 2 11 6 N 1010,2 20
14.10.2018 20:00:00 16,3 7,5 4 2 - - N 1010,0 20
14.10.2018 19:00:00 17,7 8,7 4 2 11 6 N 1009,2 20
14.10.2018 18:00:00 19,6 8,5 4 2 22 12 N 1008,5 20
14.10.2018 17:00:00 20,7 8,5 7 4 - - S 1008,2 20
14.10.2018 16:00:00 21,1 8,5 7 4 32 18 S 1008,2 20
14.10.2018 15:00:00 20,7 9,0 14 8 29 16 S 1008,7 20
14.10.2018 14:00:00 20,7 9,5 11 6 - - S 1009,1 19
14.10.2018 13:00:00 19,4 9,9 11 6 25 14 S 1009,8 20
14.10.2018 12:00:00 18,0 9,8 11 6 25 14 S 1010,3 20
14.10.2018 11:00:00 17,1 8,9 7 4 - - S 1010,7 20
14.10.2018 10:00:00 15,5 9,3 7 4 22 12 S 1011,3 19
14.10.2018 09:00:00 14,1 9,2 4 2 18 10 N 1011,7 20
14.10.2018 08:00:00 12,8 9,3 4 2 - - N 1011,8 20
14.10.2018 07:00:00 13,6 9,5 4 2 11 6 N 1011,8 20
14.10.2018 06:00:00 14,0 9,5 4 2 14 8 N 1012,3 20
14.10.2018 05:00:00 14,3 9,6 4 2 - - N 1012,7 20
14.10.2018 04:00:00 14,9 9,5 4 2 11 6 N 1013,1 20
14.10.2018 03:00:00 14,6 9,4 4 2 11 6 N 1013,7 20
14.10.2018 02:00:00 15,3 9,3 4 2 - - N 1014,2 20
14.10.2018 01:00:00 16,1 9,5 4 2 11 6 N 1014,7 20
14.10.2018 00:00:00 16,5 9,3 4 2 11 6 N 1015,1 20
13.10.2018 23:00:00 16,6 8,9 4 2 - - N 1015,2 20
13.10.2018 22:00:00 17,0 9,4 4 2 14 8 N 1015,2 20
13.10.2018 21:00:00 17,5 9,5 4 2 11 6 N 1015,5 20
13.10.2018 20:00:00 17,6 9,3 4 2 - - N 1015,7 20
13.10.2018 19:00:00 18,7 9,2 4 2 14 8 N 1015,8 20
13.10.2018 18:00:00 20,7 9,2 4 2 22 12 N 1015,5 20
13.10.2018 17:00:00 21,8 9,0 7 4 - - S 1016,1 20
13.10.2018 16:00:00 22,6 10,0 7 4 18 10 SSE 1016,6 20
13.10.2018 15:00:00 22,2 10,2 7 4 22 12 S 1017,2 20
13.10.2018 14:00:00 21,8 9,7 7 4 - - S 1017,8 20
13.10.2018 13:00:00 21,1 10,3 7 4 22 12 SSE 1019,0 20
13.10.2018 12:00:00 19,8 11,4 7 4 22 12 SSE 1019,7 20
13.10.2018 11:00:00 18,1 11,8 4 2 - - N 1020,3 20
13.10.2018 10:00:00 17,0 11,9 4 2 14 8 N 1020,8 20
13.10.2018 09:00:00 11,1 10,4 4 2 4 2 N 1022,2 16
13.10.2018 08:00:00 9,3 8,9 2 1 - - - 1022,7 10
13.10.2018 07:00:00 10,3 9,6 4 2 4 2 N 1022,7 16
13.10.2018 06:00:00 11,2 10,0 4 2 4 2 N 1023,0 20
13.10.2018 05:00:00 12,0 10,2 4 2 - - N 1022,7 20
13.10.2018 04:00:00 15,8 11,1 4 2 11 6 N 1021,5 20
13.10.2018 03:00:00 15,6 10,9 4 2 14 8 N 1021,8 20
13.10.2018 02:00:00 16,2 10,9 4 2 - - N 1021,6 20
13.10.2018 01:00:00 15,5 10,9 4 2 7 4 N 1022,0 20
13.10.2018 00:00:00 16,0 11,0 4 2 11 6 N 1022,2 20
12.10.2018 23:00:00 17,2 11,1 4 2 - - N 1021,8 20
12.10.2018 22:00:00 17,3 11,3 4 2 14 8 N 1021,7 20
12.10.2018 21:00:00 17,8 11,6 4 2 14 8 N 1021,2 20
12.10.2018 20:00:00 17,7 12,1 4 2 - - N 1021,2 20
12.10.2018 19:00:00 18,4 12,3 4 2 14 8 N 1020,6 20
12.10.2018 18:00:00 19,6 12,7 4 2 18 10 N 1020,2 20
12.10.2018 17:00:00 20,5 12,7 7 4 - - SSE 1019,7 20
12.10.2018 16:00:00 20,7 12,3 7 4 22 12 S 1019,7 20
12.10.2018 15:00:00 20,5 11,7 7 4 25 14 S 1019,5 20
12.10.2018 14:00:00 20,7 12,1 7 4 - - S 1019,3 20
12.10.2018 13:00:00 19,2 12,2 11 6 25 14 S 1019,5 20
12.10.2018 12:00:00 17,9 11,7 7 4 22 12 S 1020,1 20
12.10.2018 11:00:00 15,9 11,5 4 2 - - N 1020,7 20
12.10.2018 10:00:00 14,6 11,3 4 2 14 8 N 1020,3 20
12.10.2018 09:00:00 13,5 11,1 4 2 14 8 N 1020,2 20
12.10.2018 08:00:00 12,6 10,6 4 2 - - N 1019,3 20
12.10.2018 07:00:00 12,3 10,2 4 2 11 6 N 1018,8 20
12.10.2018 06:00:00 12,7 10,4 4 2 11 6 N 1018,2 20
12.10.2018 05:00:00 12,8 10,4 4 2 - - N 1017,5 20
12.10.2018 04:00:00 13,0 10,2 4 2 11 6 N 1017,0 20
12.10.2018 03:00:00 13,1 10,0 4 2 11 6 N 1016,7 20

tt = Température de l'air
td = dewpoint
ff = Vitesse du vent
fx = gusts
dd = Direction du vent
ppp = reduced air pressure
vv = visibility

stations d'obs. à proximité